FW5241 Weather Reports


time (UTC)temp
C
wind
direction
speed
KPH
gust
KPH
rain 1hr
cm
rain 24hr
cm
rain mn
cm
humidity
%
barometer
mb
20260504081502 6 267 0.0 0.0 0.00 0.00 0.00 70 1010.4
20260504050113 5 317 0.0 0.0 0.00 0.00 0.00 72 1010.7
20260504044544 5 315 0.0 0.0 0.00 0.00 0.00 70 1010.7
20260504043042 6 285 0.0 0.0 0.00 0.00 0.00 69 1010.6
20260504041540 6 336 0.0 0.0 0.00 0.00 0.00 69 1010.5
20260504040041 6 306 0.0 0.0 0.00 0.00 0.00 68 1010.3
20260504034546 7 322 0.0 0.0 0.00 0.00 0.00 66 1010.2
20260504033034 7 183 0.0 0.0 0.00 0.00 0.00 64 1010.3
20260504031540 7 284 0.0 0.0 0.00 0.00 0.00 65 1010.3
20260504030039 7 278 0.0 0.0 0.00 0.00 0.00 66 1010.3
20260504024533 7 36 0.0 0.0 0.00 0.00 0.00 66 1010.4
20260504023029 7 223 0.0 0.0 0.00 0.00 0.00 64 1010.7
20260504021528 7 242 0.0 0.0 0.00 0.00 0.00 63 1010.4
20260504020030 7 31 0.0 0.0 0.00 0.00 0.00 64 1010.4
20260504014526 7 275 0.0 0.0 0.00 0.00 0.00 67 1010.3
20260504013026 7 315 0.0 0.0 0.00 0.00 0.00 66 1010.2
20260504011522 7 167 0.0 0.0 0.00 0.00 0.00 65 1010.1
20260504010017 8 133 0.0 0.0 0.00 0.00 0.00 63 1009.8
20260504004513 10 108 0.0 0.0 0.00 0.00 0.00 59 1009.6
20260504003009 11 200 0.0 0.0 0.00 0.00 0.00 55 1009.6
20260504001506 11 141 0.0 0.0 0.00 0.00 0.00 47 1009.6
20260504000111 -17 0.0 0.0 0.00 0.00 0.00 1009.3
20260503233015 12 82 0.0 0.0 0.00 0.00 0.00 42 1009.2
20260503231517 13 153 0.0 0.0 0.00 0.00 0.00 46 1009.2
20260503230013 13 108 0.0 0.0 0.00 0.00 0.00 44 1009.2
20260503224510 13 112 0.0 0.0 0.00 0.00 0.00 42 1009.2
20260503223017 13 232 0.0 0.0 0.00 0.00 0.00 41 1009.5
20260503221507 13 259 0.0 0.0 0.00 0.00 0.00 41 1009.2
20260503220009 13 168 0.0 0.0 0.00 0.00 0.00 43 1009.3
20260503213046 13 277 0.0 0.0 0.00 0.00 0.00 40 1009.3
20260503211526 13 209 0.0 0.0 0.00 0.00 0.00 41 1009.2
20260503210025 13 323 0.0 0.0 0.00 0.00 0.00 39 1009.2
20260503204534 13 190 0.0 0.0 0.00 0.00 0.00 40 1009.2
20260503203025 13 169 0.0 0.0 0.00 0.00 0.00 38 1009.3
20260503201526 13 5 0.0 0.0 0.00 0.00 0.00 39 1009.4
20260503200022 13 211 0.0 0.0 0.00 0.00 0.00 39 1009.4
20260503194525 13 283 0.0 0.0 0.00 0.00 0.00 43 1009.6
20260503193020 13 333 0.0 0.0 0.00 0.00 0.00 38 1009.9
20260503191518 13 279 0.0 0.0 0.00 0.00 0.00 35 1010.0
20260503190016 13 275 0.0 0.0 0.00 0.00 0.00 36 1010.3
20260503184515 13 277 0.0 0.0 0.00 0.00 0.00 39 1010.4
20260503183012 12 281 0.0 0.0 0.00 0.00 0.00 35 1010.5
20260503181510 12 278 0.0 0.0 0.00 0.00 0.00 39 1010.6
20260503180018 11 229 0.0 0.0 0.00 0.00 0.00 42 1010.9
20260503174517 12 62 0.0 0.0 0.00 0.00 0.00 39 1011.0
20260503173001 11 22 0.0 0.0 0.00 0.00 0.00 41 1011.2
20260503171600 10 288 0.0 0.0 0.00 0.00 0.00 46 1011.5